User: anonymous   Login
Location: Caracas
(10.5033°N, 66.8422°W)
Time: 12:49:46
(UTC-04:00)
Language:

ISS - Orbit

View from above orbital plane
View from above orbital plane
View from above satellite
View from above satellite

Ground track
Ground track

The orbit data is extracted from the following two-line orbital elements,

1 25544U 98067A   18201.83216750  .00016717  00000-0  10270-3 0  9012
2 25544  51.6401 211.0223 0004352 336.7904  23.3052 15.54013035  3742
Epoch (UTC): 20 July 2018 19:58:19
Eccentricity: 0.0004352
inclination: 51.6401°
perigee height: 402 km
apogee height: 408 km
right ascension of ascending node: 211.0223°
argument of perigee: 336.7904°
revolutions per day: 15.54013035
mean anomaly at epoch: 23.3052°
orbit number at epoch: 374

The dashed part of the orbit path shows where the satellite is in the earth's shadow,  

DLR